Back to catalog

OPS 4682 DEB

AlivePO
NORAD 38431·DEBRIS·🇺🇸 United States

Launched Apr 3, 1965 from Vandenberg Space Force Base

Loading…

Next Passes (next 24 hours)

TLE

FreshSource: Space-Track

Epoch: Sep 14, 2026, 13:49 UTC

1 38431U 65027EL  26257.57624051  .00000854  00000-0  27823-2 0  9992
2 38431  90.2385 359.4462 0022167 356.9327   3.1656 13.00724253676191

Track OPS 4682 DEB in real time with AllMySat

Download on the App Store